Notices

What's New in latest Release from April 7th, 2021:

- Updated Glossary, including Speed of Maximum Gust, and Total Hourly Precipitation

- Updated national and regional climate services offices contacts and prices information

- Addition of station inventory lists for 1981-2010, 1971-2000, and 1961-1990 Normals.

If you haven't already, please take our survey and provide feedback about our website: https://eccc.sondage-survey.ca/f/LanguageSelection.aspx?s=442ca660-fcf1-47c0-95a9-59707d6fd709

Hourly Data Report for November 27, 2019

SHEARWATER RCS
NOVA SCOTIA
Current Station Operator: ECCC - MSC

44°37'47.000" N
63°30'48.000" W
24.00 m
8205092
71264
AAW

Download Data

Hourly Data (November 2019)
Hourly Data Report for November 27, 2019
TIME
LST
Temp Definition
°C
Dew Point Definition
°C
Rel Hum Definition
%
Precip. Amount Definition
mm

Wind Dir Definition
10's deg

Wind Spd Definition
km/h
Visibility Definition
km
Stn Press Definition
kPa
Hmdx Definition


Wind Chill Definition


Weather Definition


00:00 7.7 5.8 88 0.0 26 11   100.96     LegendNANA
01:00 7.7 5.7 87 0.0 26 13   100.93     LegendNANA
02:00 7.3 5.6 89 0.0 26 13   101.01     LegendNANA
03:00 7.3 5.2 86 0.0 26 12   101.07     LegendNANA
04:00 6.9 4.4 85 0.0 28 13   101.10     LegendNANA
05:00 6.4 3.6 82 0.0 29 11   101.15     LegendNANA
06:00 5.6 2.9 82 0.0 28 9   101.21     LegendNANA
07:00 5.1 2.2 82 0.0 26 8   101.25     LegendNANA
08:00 5.2 2.4 82 0.0 28 10   101.33     LegendNANA
09:00
10:00
11:00
12:00 8.4 0.6 58 0.0 29 14   101.25     LegendNANA
13:00 9.5 1.1 56 0.0 30 12   101.20     LegendNANA
14:00 9.0 0.6 56 0.0 32 12   101.16     LegendNANA
15:00 8.4 0.6 58 0.0 31 10   101.17     LegendNANA
16:00 7.7 0.9 62 0.0 32 9   101.19     LegendNANA
17:00 6.8 0.7 65 0.0 35 4   101.15     LegendNANA
18:00 5.5 0.5 71 0.0 1 3   101.09     LegendNANA
19:00 5.4 1.0 73 0.0 36 6   101.07     LegendNANA
20:00 4.5 0.6 76 0.0 4 6   100.94     LegendNANA
21:00 3.9 0.7 80 0.0 5 7   100.87     LegendNANA
22:00 4.1 0.9 79 0.0 4 9   100.77     LegendNANA
23:00 3.6 1.0 83 0.0 6 8   100.62     LegendNANA

Notes on Data Quality.

Legend

  • E = Estimated
  • M = Missing
  • NA = Not Available*
  • [empty] = Indicates an unobserved value
Date modified: